STARLINK-32259 (60937 NORAD) Tracking and Keplerian Element Data

This shows tracking and keplerian element data for the satellite.

Feedback or suggestion? Click here.




ElementValue
Catalog60937
NameSTARLINK-32259
Epoch Orbit775
Epoch Day286.62425461
Epoch Year2024
RAAN355.2729
Inclination53.1584
Eccentricity0.0001645
Argument of Perigee75.232
Mean Anonmoly284.8867
Mean Motion15.39641629
Decay Rate9.613E-05
L11 60937U 24155P 24286.62425461 .00009613 00000+0 24983-3 0 9991
L22 60937 53.1584 355.2729 0001645 75.2320 284.8867 15.39641629 7759



Live tracking and technical data element details for STARLINK-32259 (NORAD 60937). STARLINK-32259 can be tracked NOW for your location showing map with azimuth and elevation plus other details from your city location.







IsCatalogInMostPopularTable: catalog: 60937, numindb: 9
Update: records affected: 1



GetName: 60937 STARLINK-32259

Hit Count: updated at: Wed, 04 Dec 2024 19:25:02 GMT